TimeCDT,TemperatureF,Dew PointF,Humidity,Sea Level PressureIn,VisibilityMPH,Wind Direction,Wind SpeedMPH,Gust SpeedMPH,PrecipitationIn,Events,Conditions,WindDirDegrees,DateUTC
12:53 AM,46.9,32.0,56,30.11,10.0,Calm,Calm,-,N/A,,Clear,0,2013-10-07 05:53:00
1:53 AM,44.1,33.1,65,30.12,-9999.0,NW,6.9,-,N/A,,Clear,320,2013-10-07 06:53:00
2:53 AM,42.1,33.1,70,30.12,-9999.0,West,4.6,-,N/A,,Clear,280,2013-10-07 07:53:00
3:53 AM,39.0,32.0,76,30.13,-9999.0,West,4.6,-,N/A,,Clear,260,2013-10-07 08:53:00
4:53 AM,37.9,32.0,79,30.13,-9999.0,West,5.8,-,N/A,,Clear,270,2013-10-07 09:53:00
5:53 AM,39.9,33.1,77,30.13,-9999.0,West,5.8,-,N/A,,Clear,260,2013-10-07 10:53:00
6:53 AM,37.9,33.1,83,30.15,-9999.0,WSW,8.1,-,N/A,,Clear,250,2013-10-07 11:53:00
7:53 AM,37.9,33.1,83,30.17,-9999.0,West,6.9,-,N/A,,Clear,260,2013-10-07 12:53:00
8:53 AM,44.1,36.0,73,30.18,-9999.0,SW,4.6,-,N/A,,Clear,230,2013-10-07 13:53:00
9:53 AM,54.0,37.9,55,30.17,10.0,SW,6.9,-,N/A,,Clear,220,2013-10-07 14:53:00
10:53 AM,62.1,35.1,37,30.16,10.0,SW,12.7,-,N/A,,Clear,220,2013-10-07 15:53:00
11:53 AM,66.9,32.0,27,30.14,10.0,SW,12.7,-,N/A,,Clear,220,2013-10-07 16:53:00
12:53 PM,72.0,32.0,23,30.11,10.0,SW,10.4,-,N/A,,Clear,220,2013-10-07 17:53:00
1:53 PM,75.0,35.1,23,30.08,10.0,SSW,9.2,-,N/A,,Clear,210,2013-10-07 18:53:00
2:53 PM,77.0,36.0,23,30.05,10.0,SSW,11.5,-,N/A,,Clear,200,2013-10-07 19:53:00
3:53 PM,77.0,35.1,22,30.03,10.0,South,8.1,20.7,N/A,,Clear,190,2013-10-07 20:53:00
4:53 PM,78.1,35.1,21,30.01,10.0,South,11.5,-,N/A,,Clear,170,2013-10-07 21:53:00
5:53 PM,77.0,35.1,22,30.00,10.0,South,13.8,-,N/A,,Clear,170,2013-10-07 22:53:00
6:53 PM,70.0,37.0,30,30.01,10.0,SSE,10.4,-,N/A,,Clear,150,2013-10-07 23:53:00
7:53 PM,64.0,37.9,38,30.01,10.0,SSE,12.7,-,N/A,,Clear,160,2013-10-08 00:53:00
8:53 PM,63.0,37.9,40,30.02,10.0,South,15.0,-,N/A,,Clear,170,2013-10-08 01:53:00
9:53 PM,61.0,36.0,39,30.02,10.0,South,15.0,-,N/A,,Clear,170,2013-10-08 02:53:00
10:53 PM,60.1,35.1,39,30.01,10.0,South,18.4,-,N/A,,Clear,170,2013-10-08 03:53:00
11:53 PM,57.9,35.1,42,29.99,10.0,South,16.1,-,N/A,,Clear,170,2013-10-08 04:53:00